Regional Weather Roundup
Issued by NWS

Home | Current Version | Previous Version | Graphics & Text | Print | Product List | Glossary On
Versions: 1 2 3 4 5 6 7 8 9 10 11 12 13 14 15 16 17 18 19 20 21 22 23 24 25 26 27 28 29 30 31 32 33 34 35 36 37 38 39 40 41 42 43 44 45 46 47 48 49 50
531
ASUS45 KSLC 192210
RWRUT

UTAH REGIONAL WEATHER ROUNDUP
NATIONAL WEATHER SERVICE SALT LAKE CITY UT
400 PM MDT SAT AUG 19 2017

UTZ001>011-023>025-192300-

NORTHERN UTAH

CITY           SKY/WX    TMP DP  RH WIND       PRES   REMARKS
BRIGHAM CITY   SUNNY     91  17   6 S6        30.02F
HILL AFB       SUNNY     89  29  11 NW6       30.05F
LOGAN          SUNNY     91  28  10 MISG      30.02F
OGDEN          SUNNY     92  29  10 VRB3      30.01F
SALT LAKE CITY MOSUNNY   94  35  12 S10       29.99F
TOOELE VALLEY  MOSUNNY   90  41  18 NE12      30.00F
WENDOVER       MOSUNNY   92  33  12 SE9       30.00F
HEBER CITY     PTSUNNY   84  32  15 SW6       30.10F
WEST JORDAN    MOSUNNY   88  52  29 SE5       30.04F

$$

UTZ011>015-024>027-192300-

CENTRAL/NORTHEAST UTAH

CITY           SKY/WX    TMP DP  RH WIND       PRES   REMARKS
PROVO AIRPORT  MOSUNNY   90  43  19 CALM      30.03F
MOAB/CANYONLAN MOSUNNY   98  30   9 W24G30    29.99F HX  92
DELTA          SUNNY     91  32  12 W5        30.02F
PRICE          MOSUNNY   82  34  17 S5        30.15F
ROOSEVELT      PTSUNNY   90  32  12 SW17      30.10F
VERNAL         SUNNY     92  34  13 SW15G22   30.07F

$$

UTZ013>016-019>022-027-192300-

SOUTHERN UTAH

CITY           SKY/WX    TMP DP  RH WIND       PRES   REMARKS
BRYCE CANYON   MOSUNNY   81  35  19 S13G22    30.28F
CEDAR CITY     SUNNY     90  32  12 SW13G24   30.11F
MILFORD        SUNNY     95  28   9 S13       30.03F
ST GEORGE      MOCLDY   101  38  11 SW8       29.91F HX  95
HANKSVILLE     PTSUNNY   95  32  11 E6        30.03F HX  90
BLANDING       MOSUNNY   91  30  11 W3G18     30.19F

$$

REGIONAL REPORTS     COLORADO/ARIZONA

CITY           SKY/WX    TMP DP  RH WIND       PRES   REMARKS
CRAIG, CO      SUNNY     88  22   9 W9G21     30.14F
GRAND JUNCTION CLOUDY    92  32  12 CALM      30.04F
RIFLE, CO      MOSUNNY   86  33  15 NW8       30.12S
MONTROSE, CO   SUNNY     88  35  15 N10       30.13F
CORTEZ, CO     SUNNY     91  26   9 NW12G21   30.12F
COLORADO CITY    N/A     93  36  13 E3        30.10F
PAGE, AZ       SUNNY     98  35  11 N10G18    29.98F HX  93
GRAND CANYON   MOSUNNY   82  32  16 CALM      30.24F
KINGMAN, AZ    SUNNY     97  39  13 SW18      29.99F HX  92
FLAGSTAFF, AZ  MOSUNNY   79  39  23 SW13      30.27F

$$

REGIONAL REPORTS    NEVADA/IDAHO/WYOMING

CITY           SKY/WX    TMP DP  RH WIND       PRES   REMARKS
LAS VEGAS, NV  MOSUNNY  103  40  11 SE9G16    29.85F HX  98
ELY, NY        MOSUNNY   86  36  16 N13       30.14F
ELKO, NV       MOSUNNY   93  22   7 SW13G20   30.03F
POCATELLO, ID  SUNNY     90  27  10 W16       30.03F
BURLEY, ID     SUNNY     84  38  19 W8        30.01F
FORT BRIDGER,    N/A     85  22   9 NW13G24   30.22F
EVANSTON, WY   MOSUNNY   81  27  14 W16G29    30.22F
ROCK SPRINGS,  SUNNY     84  16   8 W22G29    30.16F
KEMMERER, WY     N/A    N/A N/A N/A W16G30    30.23F

$$




USA.gov is the U.S. government's official web portal to all federal, state and local government web resources and services.